| time (UTC) | temp F | wind direction | speed MPH | gust MPH | rain 1hr in | rain 24hr in | rain mn in | humidity % | barometer mb |
| 20260906203036 | 76 | 276 | 1.0 | 4.0 | 0.00 | 0.00 | 0.00 | 61 | 1027.1 |
| 20260906202753 | 76 | 277 | 1.0 | 4.0 | 0.00 | 0.00 | 0.00 | 61 | 1027.1 |
| 20260906202536 | 76 | 273 | 1.0 | 4.0 | 0.00 | 0.00 | 0.00 | 61 | 1027.1 |
| 20260906202036 | 76 | 254 | 0.0 | 2.0 | 0.00 | 0.00 | 0.00 | 62 | 1027.1 |
| 20260906201753 | 76 | 246 | 0.0 | 2.0 | 0.00 | 0.00 | 0.00 | 62 | 1027.0 |
| 20260906201536 | 76 | 240 | 0.0 | 2.0 | 0.00 | 0.00 | 0.00 | 62 | 1027.2 |
| 20260906201304 | 76 | 248 | 0.0 | 3.0 | 0.00 | 0.00 | 0.00 | 61 | 1027.2 |
| 20260906200752 | 77 | 256 | 0.0 | 3.0 | 0.00 | 0.00 | 0.00 | 60 | 1027.3 |
| 20260906200539 | 77 | 265 | 0.0 | 3.0 | 0.00 | 0.00 | 0.00 | 60 | 1027.5 |
| 20260906200036 | 77 | 268 | 1.0 | 3.0 | 0.00 | 0.00 | 0.00 | 59 | 1027.3 |
| 20260906195753 | 77 | 271 | 1.0 | 3.0 | 0.00 | 0.00 | 0.00 | 59 | 1027.3 |
| 20260906195536 | 77 | 275 | 1.0 | 3.0 | 0.00 | 0.00 | 0.00 | 59 | 1027.3 |
| 20260906195035 | 77 | 275 | 1.0 | 3.0 | 0.00 | 0.00 | 0.00 | 58 | 1027.3 |
| 20260906194752 | 77 | 277 | 0.0 | 3.0 | 0.00 | 0.00 | 0.00 | 58 | 1027.3 |
| 20260906194535 | 78 | 279 | 0.0 | 2.0 | 0.00 | 0.00 | 0.00 | 58 | 1027.3 |
| 20260906194037 | 78 | 292 | 0.0 | 2.0 | 0.00 | 0.00 | 0.00 | 58 | 1027.2 |
| 20260906193752 | 78 | 299 | 0.0 | 2.0 | 0.00 | 0.00 | 0.00 | 58 | 1027.1 |
| 20260906193536 | 78 | 298 | 0.0 | 2.0 | 0.00 | 0.00 | 0.00 | 58 | 1027.1 |
| 20260906193033 | 78 | 286 | 1.0 | 2.0 | 0.00 | 0.00 | 0.00 | 58 | 1027.0 |
| 20260906192751 | 78 | 270 | 1.0 | 2.0 | 0.00 | 0.00 | 0.00 | 58 | 1027.0 |
| 20260906192531 | 78 | 123 | 1.0 | 2.0 | 0.00 | 0.00 | 0.00 | 59 | 1027.0 |
| 20260906192031 | 78 | 105 | 0.0 | 0.0 | 0.00 | 0.00 | 0.00 | 59 | 1026.8 |
| 20260906191752 | 78 | 105 | 0.0 | 0.0 | 0.00 | 0.00 | 0.00 | 59 | 1026.7 |
| 20260906191532 | 78 | 105 | 0.0 | 0.0 | 0.00 | 0.00 | 0.00 | 59 | 1026.7 |
| 20260906191031 | 78 | 105 | 0.0 | 0.0 | 0.00 | 0.00 | 0.00 | 59 | 1026.6 |
| 20260906190809 | 78 | 105 | 0.0 | 0.0 | 0.00 | 0.00 | 0.00 | 59 | 1026.6 |
| 20260906190803 | 78 | 105 | 0.0 | 0.0 | 0.00 | 0.00 | 0.00 | 59 | 1026.7 |
| 20260906190031 | 78 | 105 | 0.0 | 0.0 | 0.00 | 0.00 | 0.00 | 59 | 1026.7 |
| 20260906185752 | 78 | 105 | 0.0 | 0.0 | 0.00 | 0.00 | 0.00 | 59 | 1026.6 |
| 20260906185530 | 78 | 105 | 0.0 | 1.0 | 0.00 | 0.00 | 0.00 | 59 | 1026.6 |
| 20260906185028 | 78 | 105 | 0.0 | 1.0 | 0.00 | 0.00 | 0.00 | 59 | 1026.6 |
| 20260906184803 | 78 | 105 | 0.0 | 1.0 | 0.00 | 0.00 | 0.00 | 58 | 1026.6 |
| 20260906184758 | 78 | 105 | 0.0 | 1.0 | 0.00 | 0.00 | 0.00 | 58 | 1026.6 |
| 20260906184026 | 78 | 73 | 0.0 | 1.0 | 0.00 | 0.00 | 0.00 | 58 | 1026.3 |
| 20260906183752 | 78 | 32 | 0.0 | 1.0 | 0.00 | 0.00 | 0.00 | 58 | 1026.3 |
| 20260906183525 | 79 | 3 | 0.0 | 1.0 | 0.00 | 0.00 | 0.00 | 58 | 1026.3 |
| 20260906183026 | 79 | 351 | 0.0 | 0.0 | 0.00 | 0.00 | 0.00 | 57 | 1026.3 |
| 20260906182752 | 80 | 351 | 0.0 | 1.0 | 0.00 | 0.00 | 0.00 | 56 | 1026.4 |
| 20260906182526 | 80 | 351 | 0.0 | 1.0 | 0.00 | 0.00 | 0.00 | 56 | 1026.4 |
| 20260906182027 | 80 | 336 | 0.0 | 1.0 | 0.00 | 0.00 | 0.00 | 56 | 1026.2 |
| 20260906181750 | 80 | 302 | 0.0 | 1.0 | 0.00 | 0.00 | 0.00 | 56 | 1026.2 |
| 20260906181526 | 80 | 269 | 0.0 | 1.0 | 0.00 | 0.00 | 0.00 | 55 | 1026.2 |
| 20260906181025 | 80 | 244 | 0.0 | 1.0 | 0.00 | 0.00 | 0.00 | 55 | 1026.1 |
| 20260906180748 | 80 | 244 | 0.0 | 2.0 | 0.00 | 0.00 | 0.00 | 55 | 1026.0 |
| 20260906180526 | 81 | 244 | 0.0 | 2.0 | 0.00 | 0.00 | 0.00 | 54 | 1026.0 |
| 20260906180026 | 81 | 249 | 0.0 | 2.0 | 0.00 | 0.00 | 0.00 | 54 | 1026.1 |
| 20260906175749 | 81 | 240 | 0.0 | 2.0 | 0.00 | 0.00 | 0.00 | 54 | 1026.1 |
| 20260906175526 | 81 | 215 | 1.0 | 2.0 | 0.00 | 0.00 | 0.00 | 52 | 1026.1 |
| 20260906175026 | 82 | 150 | 2.0 | 3.0 | 0.00 | 0.00 | 0.00 | 52 | 1026.2 |
| 20260906174747 | 82 | 146 | 1.0 | 3.0 | 0.00 | 0.00 | 0.00 | 51 | 1026.0 |
| 20260906174527 | 82 | 149 | 1.0 | 3.0 | 0.00 | 0.00 | 0.00 | 51 | 1026.0 |
| 20260906174026 | 82 | 157 | 0.0 | 3.0 | 0.00 | 0.00 | 0.00 | 50 | 1026.0 |
| 20260906173752 | 83 | 161 | 0.0 | 3.0 | 0.00 | 0.00 | 0.00 | 50 | 1026.0 |
| 20260906173525 | 83 | 164 | 0.0 | 3.0 | 0.00 | 0.00 | 0.00 | 50 | 1026.0 |
| 20260906173026 | 83 | 165 | 0.0 | 3.0 | 0.00 | 0.00 | 0.00 | 50 | 1025.9 |
| 20260906172748 | 83 | 167 | 0.0 | 4.0 | 0.00 | 0.00 | 0.00 | 49 | 1026.0 |
| 20260906172526 | 83 | 176 | 0.0 | 4.0 | 0.00 | 0.00 | 0.00 | 49 | 1026.0 |
| 20260906172026 | 83 | 162 | 0.0 | 4.0 | 0.00 | 0.00 | 0.00 | 49 | 1026.0 |
| 20260906171749 | 83 | 149 | 1.0 | 4.0 | 0.00 | 0.00 | 0.00 | 49 | 1025.9 |
| 20260906171528 | 83 | 142 | 1.0 | 4.0 | 0.00 | 0.00 | 0.00 | 49 | 1025.9 |
| 20260906171026 | 83 | 138 | 1.0 | 4.0 | 0.00 | 0.00 | 0.00 | 49 | 1026.0 |
| 20260906170747 | 84 | 143 | 1.0 | 4.0 | 0.00 | 0.00 | 0.00 | 49 | 1026.0 |
| 20260906170526 | 84 | 138 | 1.0 | 4.0 | 0.00 | 0.00 | 0.00 | 49 | 1025.9 |
| 20260906170026 | 84 | 161 | 2.0 | 4.0 | 0.00 | 0.00 | 0.00 | 48 | 1025.9 |
| 20260906165747 | 85 | 156 | 2.0 | 8.0 | 0.00 | 0.00 | 0.00 | 48 | 1025.8 |
| 20260906165527 | 85 | 155 | 2.0 | 8.0 | 0.00 | 0.00 | 0.00 | 47 | 1025.8 |
| 20260906165027 | 85 | 158 | 2.0 | 8.0 | 0.00 | 0.00 | 0.00 | 47 | 1025.8 |
| 20260906164747 | 85 | 155 | 2.0 | 8.0 | 0.00 | 0.00 | 0.00 | 47 | 1025.8 |
| 20260906164527 | 85 | 163 | 2.0 | 8.0 | 0.00 | 0.00 | 0.00 | 47 | 1025.6 |
| 20260906164027 | 86 | 133 | 2.0 | 8.0 | 0.00 | 0.00 | 0.00 | 47 | 1025.5 |
| 20260906163747 | 86 | 148 | 2.0 | 7.0 | 0.00 | 0.00 | 0.00 | 46 | 1025.6 |
| 20260906163527 | 86 | 141 | 2.0 | 7.0 | 0.00 | 0.00 | 0.00 | 46 | 1025.6 |
| 20260906163027 | 87 | 191 | 2.0 | 7.0 | 0.00 | 0.00 | 0.00 | 46 | 1025.6 |
| 20260906162802 | 87 | 180 | 1.0 | 7.0 | 0.00 | 0.00 | 0.00 | 45 | 1025.5 |
| 20260906162756 | 87 | 152 | 2.0 | 7.0 | 0.00 | 0.00 | 0.00 | 45 | 1025.5 |
| 20260906162026 | 87 | 141 | 2.0 | 8.0 | 0.00 | 0.00 | 0.00 | 45 | 1025.5 |
| 20260906161748 | 87 | 201 | 2.0 | 8.0 | 0.00 | 0.00 | 0.00 | 45 | 1025.4 |
| 20260906161526 | 87 | 223 | 2.0 | 8.0 | 0.00 | 0.00 | 0.00 | 45 | 1025.4 |
| 20260906161025 | 87 | 145 | 2.0 | 8.0 | 0.00 | 0.00 | 0.00 | 45 | 1025.4 |
| 20260906160800 | 87 | 95 | 2.0 | 8.0 | 0.00 | 0.00 | 0.00 | 45 | 1025.4 |
| 20260906160754 | 87 | 115 | 1.0 | 8.0 | 0.00 | 0.00 | 0.00 | 45 | 1025.4 |
| 20260906160028 | 87 | 52 | 2.0 | 8.0 | 0.00 | 0.00 | 0.00 | 45 | 1025.3 |
| 20260906155747 | 87 | 35 | 2.0 | 8.0 | 0.00 | 0.00 | 0.00 | 45 | 1025.3 |
| 20260906155526 | 87 | 76 | 2.0 | 8.0 | 0.00 | 0.00 | 0.00 | 44 | 1025.4 |
| 20260906155025 | 88 | 122 | 1.0 | 6.0 | 0.00 | 0.00 | 0.00 | 44 | 1025.4 |
| 20260906154746 | 88 | 148 | 1.0 | 6.0 | 0.00 | 0.00 | 0.00 | 45 | 1025.4 |
| 20260906154526 | 87 | 161 | 1.0 | 6.0 | 0.00 | 0.00 | 0.00 | 45 | 1025.3 |
| 20260906154258 | 87 | 246 | 2.0 | 10.0 | 0.00 | 0.00 | 0.00 | 45 | 1025.2 |
| 20260906153746 | 87 | 315 | 2.0 | 10.0 | 0.00 | 0.00 | 0.00 | 45 | 1025.2 |
| 20260906153526 | 87 | 330 | 3.0 | 10.0 | 0.00 | 0.00 | 0.00 | 45 | 1025.2 |
| 20260906153026 | 87 | 325 | 3.0 | 10.0 | 0.00 | 0.00 | 0.00 | 45 | 1025.2 |
| 20260906152746 | 88 | 344 | 3.0 | 10.0 | 0.00 | 0.00 | 0.00 | 45 | 1025.1 |
| 20260906152526 | 88 | 160 | 3.0 | 10.0 | 0.00 | 0.00 | 0.00 | 45 | 1025.1 |
| 20260906152026 | 87 | 138 | 3.0 | 9.0 | 0.00 | 0.00 | 0.00 | 45 | 1025.2 |
| 20260906151745 | 87 | 133 | 3.0 | 9.0 | 0.00 | 0.00 | 0.00 | 46 | 1025.1 |
| 20260906151526 | 87 | 133 | 3.0 | 9.0 | 0.00 | 0.00 | 0.00 | 45 | 1025.1 |
| 20260906151258 | 88 | 171 | 2.0 | 7.0 | 0.00 | 0.00 | 0.00 | 44 | 1025.3 |
| 20260906150742 | 88 | 166 | 2.0 | 7.0 | 0.00 | 0.00 | 0.00 | 44 | 1025.3 |
| 20260906150525 | 89 | 152 | 2.0 | 7.0 | 0.00 | 0.00 | 0.00 | 44 | 1025.2 |
| 20260906150023 | 88 | 193 | 2.0 | 8.0 | 0.00 | 0.00 | 0.00 | 45 | 1025.3 |
| 20260906145807 | 88 | 235 | 3.0 | 8.0 | 0.00 | 0.00 | 0.00 | 45 | 1025.2 |
| 20260906145800 | 88 | 228 | 2.0 | 8.0 | 0.00 | 0.00 | 0.00 | 45 | 1025.2 |
| 20260906145024 | 87 | 354 | 3.0 | 8.0 | 0.00 | 0.00 | 0.00 | 45 | 1025.1 |
| 20260906144742 | 88 | 18 | 3.0 | 10.0 | 0.00 | 0.00 | 0.00 | 45 | 1025.1 |
| 20260906144528 | 88 | 28 | 2.0 | 10.0 | 0.00 | 0.00 | 0.00 | 45 | 1025.1 |
| 20260906144024 | 88 | 93 | 2.0 | 10.0 | 0.00 | 0.00 | 0.00 | 45 | 1025.1 |
| 20260906143742 | 88 | 116 | 3.0 | 10.0 | 0.00 | 0.00 | 0.00 | 45 | 1025.1 |
| 20260906143523 | 88 | 135 | 3.0 | 10.0 | 0.00 | 0.00 | 0.00 | 45 | 1025.2 |
| 20260906143021 | 88 | 130 | 3.0 | 10.0 | 0.00 | 0.00 | 0.00 | 46 | 1025.1 |
| 20260906142743 | 88 | 131 | 2.0 | 8.0 | 0.00 | 0.00 | 0.00 | 45 | 1025.1 |
| 20260906142521 | 88 | 131 | 2.0 | 8.0 | 0.00 | 0.00 | 0.00 | 45 | 1025.1 |
| 20260906142017 | 88 | 332 | 3.0 | 9.0 | 0.00 | 0.00 | 0.00 | 45 | 1025.0 |
| 20260906141743 | 88 | 4 | 3.0 | 9.0 | 0.00 | 0.00 | 0.00 | 45 | 1025.1 |
| 20260906141516 | 88 | 352 | 3.0 | 9.0 | 0.00 | 0.00 | 0.00 | 45 | 1025.3 |
| 20260906141015 | 88 | 21 | 3.0 | 10.0 | 0.00 | 0.00 | 0.00 | 45 | 1025.2 |
| 20260906140742 | 88 | 83 | 3.0 | 10.0 | 0.00 | 0.00 | 0.00 | 44 | 1025.3 |
| 20260906140516 | 88 | 73 | 3.0 | 10.0 | 0.00 | 0.00 | 0.00 | 44 | 1025.3 |
| 20260906140016 | 88 | 93 | 2.0 | 10.0 | 0.00 | 0.00 | 0.00 | 44 | 1025.2 |
| 20260906135743 | 89 | 75 | 2.0 | 10.0 | 0.00 | 0.00 | 0.00 | 44 | 1025.1 |
| 20260906135515 | 89 | 67 | 3.0 | 10.0 | 0.00 | 0.00 | 0.00 | 43 | 1025.3 |
| 20260906135015 | 89 | 131 | 3.0 | 9.0 | 0.00 | 0.00 | 0.00 | 44 | 1025.2 |
| 20260906134743 | 89 | 356 | 2.0 | 9.0 | 0.00 | 0.00 | 0.00 | 43 | 1025.1 |
| 20260906134515 | 89 | 353 | 2.0 | 9.0 | 0.00 | 0.00 | 0.00 | 43 | 1025.1 |
| 20260906134015 | 89 | 343 | 1.0 | 12.0 | 0.00 | 0.00 | 0.00 | 44 | 1025.1 |
| 20260906133743 | 88 | 341 | 2.0 | 12.0 | 0.00 | 0.00 | 0.00 | 44 | 1025.3 |
| 20260906133516 | 88 | 338 | 2.0 | 12.0 | 0.00 | 0.00 | 0.00 | 44 | 1025.0 |
| 20260906133016 | 88 | 336 | 3.0 | 12.0 | 0.00 | 0.00 | 0.00 | 44 | 1025.1 |
| 20260906132742 | 88 | 90 | 3.0 | 12.0 | 0.00 | 0.00 | 0.00 | 43 | 1025.0 |
| 20260906132515 | 88 | 24 | 4.0 | 12.0 | 0.00 | 0.00 | 0.00 | 43 | 1025.2 |
| 20260906132019 | 89 | 107 | 4.0 | 10.0 | 0.00 | 0.00 | 0.00 | 43 | 1025.3 |
| 20260906131743 | 88 | 137 | 3.0 | 10.0 | 0.00 | 0.00 | 0.00 | 43 | 1025.3 |
| 20260906131516 | 89 | 187 | 2.0 | 7.0 | 0.00 | 0.00 | 0.00 | 43 | 1025.2 |
| 20260906131016 | 89 | 242 | 2.0 | 8.0 | 0.00 | 0.00 | 0.00 | 42 | 1025.2 |
| 20260906130742 | 89 | 263 | 2.0 | 8.0 | 0.00 | 0.00 | 0.00 | 43 | 1025.4 |
| 20260906130517 | 89 | 259 | 2.0 | 8.0 | 0.00 | 0.00 | 0.00 | 42 | 1025.3 |
| 20260906130017 | 89 | 170 | 3.0 | 8.0 | 0.00 | 0.00 | 0.00 | 43 | 1025.3 |
| 20260906125743 | 89 | 108 | 4.0 | 8.0 | 0.00 | 0.00 | 0.00 | 43 | 1025.4 |
| 20260906125518 | 89 | 112 | 3.0 | 11.0 | 0.00 | 0.00 | 0.00 | 42 | 1025.3 |
| 20260906125513 | 88 | 315 | 3.0 | 11.0 | 0.00 | 0.00 | 0.00 | 43 | 1025.2 |
| 20260906124741 | 88 | 286 | 3.0 | 11.0 | 0.00 | 0.00 | 0.00 | 43 | 1025.3 |
| 20260906124516 | 88 | 282 | 3.0 | 11.0 | 0.00 | 0.00 | 0.00 | 44 | 1025.3 |
| 20260906124017 | 88 | 261 | 3.0 | 11.0 | 0.00 | 0.00 | 0.00 | 43 | 1025.2 |
| 20260906123743 | 88 | 215 | 3.0 | 11.0 | 0.00 | 0.00 | 0.00 | 43 | 1025.3 |
| 20260906123516 | 88 | 188 | 3.0 | 8.0 | 0.00 | 0.00 | 0.00 | 43 | 1025.3 |
| 20260906123016 | 88 | 189 | 3.0 | 10.0 | 0.00 | 0.00 | 0.00 | 43 | 1025.3 |
| 20260906122741 | 88 | 148 | 3.0 | 10.0 | 0.00 | 0.00 | 0.00 | 43 | 1025.2 |
| 20260906122516 | 88 | 145 | 3.0 | 10.0 | 0.00 | 0.00 | 0.00 | 43 | 1025.3 |
| 20260906122016 | 88 | 85 | 3.0 | 13.0 | 0.00 | 0.00 | 0.00 | 44 | 1025.2 |
| 20260906121740 | 88 | 258 | 3.0 | 13.0 | 0.00 | 0.00 | 0.00 | 44 | 1025.2 |
| 20260906121517 | 88 | 243 | 3.0 | 13.0 | 0.00 | 0.00 | 0.00 | 43 | 1025.3 |
| 20260906121017 | 88 | 212 | 4.0 | 13.0 | 0.00 | 0.00 | 0.00 | 43 | 1025.1 |
| 20260906120741 | 88 | 248 | 3.0 | 13.0 | 0.00 | 0.00 | 0.00 | 43 | 1025.4 |
| 20260906120518 | 88 | 278 | 3.0 | 13.0 | 0.00 | 0.00 | 0.00 | 43 | 1025.2 |
| 20260906120017 | 88 | 317 | 3.0 | 11.0 | 0.00 | 0.00 | 0.00 | 44 | 1025.3 |
| 20260906115753 | 87 | 222 | 3.0 | 11.0 | 0.00 | 0.00 | 0.00 | 43 | 1025.2 |
| 20260906115746 | 88 | 322 | 3.0 | 11.0 | 0.00 | 0.00 | 0.00 | 44 | 1025.2 |
| 20260906115018 | 88 | 25 | 2.0 | 7.0 | 0.00 | 0.00 | 0.00 | 42 | 1025.3 |
| 20260906114741 | 88 | 218 | 2.0 | 8.0 | 0.00 | 0.00 | 0.00 | 43 | 1025.5 |
| 20260906114517 | 87 | 319 | 2.0 | 9.0 | 0.00 | 0.00 | 0.00 | 44 | 1025.3 |
| 20260906114016 | 87 | 320 | 2.0 | 9.0 | 0.00 | 0.00 | 0.00 | 44 | 1025.3 |
| 20260906113741 | 87 | 313 | 3.0 | 9.0 | 0.00 | 0.00 | 0.00 | 44 | 1025.2 |
| 20260906113515 | 87 | 322 | 3.0 | 12.0 | 0.00 | 0.00 | 0.00 | 44 | 1025.2 |
| 20260906113016 | 86 | 286 | 4.0 | 12.0 | 0.00 | 0.00 | 0.00 | 45 | 1025.3 |
| 20260906112751 | 87 | 35 | 4.0 | 12.0 | 0.00 | 0.00 | 0.00 | 44 | 1025.3 |
| 20260906112745 | 86 | 343 | 4.0 | 12.0 | 0.00 | 0.00 | 0.00 | 44 | 1025.1 |
| 20260906112015 | 86 | 343 | 3.0 | 12.0 | 0.00 | 0.00 | 0.00 | 44 | 1025.1 |
| 20260906111741 | 86 | 313 | 4.0 | 12.0 | 0.00 | 0.00 | 0.00 | 44 | 1025.1 |
| 20260906111516 | 86 | 300 | 3.0 | 9.0 | 0.00 | 0.00 | 0.00 | 44 | 1025.2 |
| 20260906111016 | 86 | 232 | 4.0 | 9.0 | 0.00 | 0.00 | 0.00 | 44 | 1025.1 |
| 20260906110740 | 86 | 214 | 4.0 | 9.0 | 0.00 | 0.00 | 0.00 | 44 | 1025.2 |
| 20260906110516 | 86 | 242 | 4.0 | 9.0 | 0.00 | 0.00 | 0.00 | 44 | 1025.4 |
| 20260906110016 | 85 | 227 | 4.0 | 10.0 | 0.00 | 0.00 | 0.00 | 44 | 1025.4 |
| 20260906105741 | 85 | 247 | 4.0 | 12.0 | 0.00 | 0.00 | 0.00 | 45 | 1025.2 |
| 20260906105515 | 85 | 226 | 4.0 | 12.0 | 0.00 | 0.00 | 0.00 | 45 | 1025.3 |
| 20260906105016 | 84 | 196 | 5.0 | 12.0 | 0.00 | 0.00 | 0.00 | 45 | 1025.3 |
| 20260906104741 | 84 | 31 | 5.0 | 12.0 | 0.00 | 0.00 | 0.00 | 45 | 1025.4 |
| 20260906104516 | 85 | 343 | 5.0 | 13.0 | 0.00 | 0.00 | 0.00 | 44 | 1025.4 |
| 20260906104016 | 84 | 314 | 4.0 | 13.0 | 0.00 | 0.00 | 0.00 | 45 | 1025.3 |
| 20260906103741 | 84 | 298 | 4.0 | 13.0 | 0.00 | 0.00 | 0.00 | 45 | 1025.4 |
| 20260906103515 | 84 | 234 | 4.0 | 13.0 | 0.00 | 0.00 | 0.00 | 44 | 1025.3 |
| 20260906103016 | 84 | 196 | 4.0 | 13.0 | 0.00 | 0.00 | 0.00 | 44 | 1025.4 |
| 20260906102741 | 84 | 200 | 4.0 | 13.0 | 0.00 | 0.00 | 0.00 | 44 | 1025.4 |
| 20260906102516 | 84 | 182 | 4.0 | 9.0 | 0.00 | 0.00 | 0.00 | 43 | 1025.4 |
| 20260906102015 | 84 | 154 | 4.0 | 12.0 | 0.00 | 0.00 | 0.00 | 44 | 1025.5 |
| 20260906101741 | 83 | 102 | 3.0 | 12.0 | 0.00 | 0.00 | 0.00 | 44 | 1025.4 |
| 20260906101514 | 83 | 18 | 4.0 | 12.0 | 0.00 | 0.00 | 0.00 | 44 | 1025.5 |
| 20260906101011 | 83 | 341 | 4.0 | 12.0 | 0.00 | 0.00 | 0.00 | 44 | 1025.6 |
| 20260906100741 | 83 | 338 | 4.0 | 12.0 | 0.00 | 0.00 | 0.00 | 43 | 1025.8 |
| 20260906100510 | 83 | 350 | 4.0 | 12.0 | 0.00 | 0.00 | 0.00 | 45 | 1025.6 |
| 20260906100011 | 83 | 206 | 4.0 | 10.0 | 0.00 | 0.00 | 0.00 | 44 | 1025.8 |
| 20260906095745 | 83 | 221 | 4.0 | 10.0 | 0.00 | 0.00 | 0.00 | 43 | 1026.0 |
| 20260906095511 | 83 | 218 | 4.0 | 10.0 | 0.00 | 0.00 | 0.00 | 45 | 1025.9 |
| 20260906095242 | 83 | 245 | 4.0 | 10.0 | 0.00 | 0.00 | 0.00 | 45 | 1025.8 |
| 20260906094741 | 83 | 278 | 4.0 | 10.0 | 0.00 | 0.00 | 0.00 | 45 | 1026.0 |
| 20260906094510 | 82 | 284 | 4.0 | 10.0 | 0.00 | 0.00 | 0.00 | 46 | 1025.9 |
| 20260906094010 | 82 | 237 | 4.0 | 9.0 | 0.00 | 0.00 | 0.00 | 45 | 1025.8 |
| 20260906093741 | 82 | 210 | 4.0 | 9.0 | 0.00 | 0.00 | 0.00 | 45 | 1025.8 |
| 20260906093510 | 83 | 204 | 5.0 | 9.0 | 0.00 | 0.00 | 0.00 | 45 | 1025.9 |
| 20260906093009 | 82 | 179 | 5.0 | 9.0 | 0.00 | 0.00 | 0.00 | 44 | 1025.9 |
| 20260906092740 | 82 | 191 | 5.0 | 9.0 | 0.00 | 0.00 | 0.00 | 44 | 1025.8 |
| 20260906092508 | 82 | 195 | 5.0 | 9.0 | 0.00 | 0.00 | 0.00 | 45 | 1025.8 |
| 20260906092007 | 82 | 218 | 4.0 | 9.0 | 0.00 | 0.00 | 0.00 | 44 | 1025.9 |
| 20260906091741 | 82 | 214 | 4.0 | 9.0 | 0.00 | 0.00 | 0.00 | 43 | 1025.9 |
| 20260906091510 | 82 | 96 | 3.0 | 9.0 | 0.00 | 0.00 | 0.00 | 42 | 1025.9 |
| 20260906091005 | 81 | 55 | 3.0 | 7.0 | 0.00 | 0.00 | 0.00 | 42 | 1026.0 |
| 20260906090741 | 81 | 57 | 3.0 | 7.0 | 0.00 | 0.00 | 0.00 | 42 | 1025.9 |
| 20260906090506 | 81 | 45 | 3.0 | 7.0 | 0.00 | 0.00 | 0.00 | 41 | 1025.9 |
| 20260906090006 | 82 | 35 | 2.0 | 7.0 | 0.00 | 0.00 | 0.00 | 41 | 1025.9 |
| 20260906085739 | 82 | 47 | 2.0 | 5.0 | 0.00 | 0.00 | 0.00 | 39 | 1026.0 |
| 20260906085514 | 81 | 86 | 1.0 | 4.0 | 0.00 | 0.00 | 0.00 | 39 | 1025.9 |
| 20260906085509 | 82 | 90 | 1.0 | 5.0 | 0.00 | 0.00 | 0.00 | 39 | 1026.0 |
| 20260906084737 | 81 | 84 | 1.0 | 4.0 | 0.00 | 0.00 | 0.00 | 39 | 1025.9 |
| 20260906084506 | 82 | 101 | 1.0 | 4.0 | 0.00 | 0.00 | 0.00 | 38 | 1025.9 |
| 20260906084006 | 82 | 125 | 1.0 | 4.0 | 0.00 | 0.00 | 0.00 | 37 | 1025.9 |
| 20260906083744 | 82 | 133 | 1.0 | 3.0 | 0.00 | 0.00 | 0.00 | 37 | 1025.8 |
| 20260906083738 | 82 | 133 | 1.0 | 4.0 | 0.00 | 0.00 | 0.00 | 37 | 1026.0 |
| 20260906083005 | 81 | 137 | 1.0 | 3.0 | 0.00 | 0.00 | 0.00 | 37 | 1025.9 |
| 20260906082737 | 82 | 162 | 1.0 | 3.0 | 0.00 | 0.00 | 0.00 | 37 | 1025.9 |
| 20260906082506 | 81 | 189 | 1.0 | 3.0 | 0.00 | 0.00 | 0.00 | 37 | 1025.9 |
| 20260906082240 | 80 | 208 | 1.0 | 3.0 | 0.00 | 0.00 | 0.00 | 37 | 1025.8 |
| 20260906081737 | 80 | 216 | 1.0 | 3.0 | 0.00 | 0.00 | 0.00 | 38 | 1025.9 |
| 20260906081506 | 81 | 216 | 1.0 | 3.0 | 0.00 | 0.00 | 0.00 | 37 | 1025.8 |
| 20260906081006 | 80 | 228 | 1.0 | 3.0 | 0.00 | 0.00 | 0.00 | 38 | 1025.6 |
| 20260906080738 | 80 | 215 | 1.0 | 3.0 | 0.00 | 0.00 | 0.00 | 38 | 1025.6 |
| 20260906080733 | 80 | 218 | 1.0 | 3.0 | 0.00 | 0.00 | 0.00 | 38 | 1025.8 |
| 20260906080007 | 79 | 215 | 1.0 | 5.0 | 0.00 | 0.00 | 0.00 | 39 | 1025.8 |
| 20260906075737 | 79 | 230 | 1.0 | 5.0 | 0.00 | 0.00 | 0.00 | 40 | 1025.5 |
| 20260906075511 | 78 | 237 | 2.0 | 7.0 | 0.00 | 0.00 | 0.00 | 40 | 1025.4 |
| 20260906075506 | 78 | 229 | 1.0 | 5.0 | 0.00 | 0.00 | 0.00 | 40 | 1025.5 |
| 20260906074736 | 78 | 239 | 2.0 | 7.0 | 0.00 | 0.00 | 0.00 | 41 | 1025.4 |
| 20260906074506 | 78 | 237 | 3.0 | 7.0 | 0.00 | 0.00 | 0.00 | 41 | 1025.4 |
| 20260906074006 | 77 | 232 | 3.0 | 7.0 | 0.00 | 0.00 | 0.00 | 42 | 1025.5 |
| 20260906073738 | 77 | 229 | 3.0 | 10.0 | 0.00 | 0.00 | 0.00 | 42 | 1025.5 |
| 20260906073505 | 77 | 227 | 2.0 | 10.0 | 0.00 | 0.00 | 0.00 | 42 | 1025.4 |
| 20260906073006 | 76 | 230 | 3.0 | 10.0 | 0.00 | 0.00 | 0.00 | 42 | 1025.4 |
| 20260906072739 | 76 | 229 | 4.0 | 10.0 | 0.00 | 0.00 | 0.00 | 43 | 1025.4 |
| 20260906072506 | 76 | 232 | 4.0 | 10.0 | 0.00 | 0.00 | 0.00 | 42 | 1025.3 |
| 20260906072006 | 76 | 234 | 4.0 | 10.0 | 0.00 | 0.00 | 0.00 | 42 | 1025.3 |
| 20260906071738 | 76 | 232 | 4.0 | 9.0 | 0.00 | 0.00 | 0.00 | 42 | 1025.3 |
| 20260906071507 | 76 | 234 | 4.0 | 8.0 | 0.00 | 0.00 | 0.00 | 42 | 1025.4 |
| 20260906071238 | 75 | 237 | 4.0 | 8.0 | 0.00 | 0.00 | 0.00 | 43 | 1025.3 |
| 20260906070739 | 75 | 240 | 4.0 | 8.0 | 0.00 | 0.00 | 0.00 | 43 | 1025.3 |
| 20260906070507 | 75 | 238 | 4.0 | 8.0 | 0.00 | 0.00 | 0.00 | 43 | 1025.3 |
| 20260906070006 | 75 | 240 | 3.0 | 9.0 | 0.00 | 0.00 | 0.00 | 43 | 1025.2 |
| 20260906065739 | 74 | 244 | 3.0 | 9.0 | 0.00 | 0.00 | 0.00 | 44 | 1025.3 |
| 20260906065508 | 74 | 248 | 3.0 | 9.0 | 0.00 | 0.00 | 0.00 | 44 | 1025.2 |
| 20260906065006 | 74 | 253 | 4.0 | 11.0 | 0.00 | 0.00 | 0.00 | 44 | 1025.1 |
| 20260906064742 | 74 | 254 | 4.0 | 11.0 | 0.00 | 0.00 | 0.00 | 44 | 1025.2 |
| 20260906064719 | 74 | 254 | 5.0 | 11.0 | 0.00 | 0.00 | 0.00 | 44 | 1025.1 |
| 20260906063737 | 73 | 250 | 5.0 | 11.0 | 0.00 | 0.00 | 0.00 | 45 | 1025.1 |
| 20260906063506 | 73 | 252 | 4.0 | 11.0 | 0.00 | 0.00 | 0.00 | 45 | 1025.2 |
| 20260906063006 | 72 | 254 | 4.0 | 10.0 | 0.00 | 0.00 | 0.00 | 45 | 1025.1 |
| 20260906062743 | 72 | 259 | 5.0 | 10.0 | 0.00 | 0.00 | 0.00 | 45 | 1025.2 |
| 20260906062738 | 72 | 256 | 5.0 | 10.0 | 0.00 | 0.00 | 0.00 | 45 | 1025.2 |
| 20260906062013 | 72 | 262 | 3.0 | 8.0 | 0.00 | 0.00 | 0.00 | 45 | 1025.1 |
| 20260906062007 | 72 | 261 | 4.0 | 10.0 | 0.00 | 0.00 | 0.00 | 45 | 1025.1 |
| 20260906061734 | 72 | 263 | 3.0 | 8.0 | 0.00 | 0.00 | 0.00 | 45 | 1025.2 |
| 20260906061006 | 72 | 265 | 2.0 | 6.0 | 0.00 | 0.00 | 0.00 | 46 | 1024.9 |
| 20260906060733 | 72 | 271 | 2.0 | 6.0 | 0.00 | 0.00 | 0.00 | 46 | 1024.9 |
| 20260906060506 | 72 | 281 | 2.0 | 6.0 | 0.00 | 0.00 | 0.00 | 46 | 1024.9 |
| 20260906060007 | 72 | 294 | 2.0 | 5.0 | 0.00 | 0.00 | 0.00 | 46 | 1024.8 |
| 20260906055732 | 72 | 291 | 2.0 | 5.0 | 0.00 | 0.00 | 0.00 | 46 | 1024.8 |
| 20260906055506 | 72 | 289 | 2.0 | 6.0 | 0.00 | 0.00 | 0.00 | 46 | 1024.7 |
| 20260906055005 | 72 | 287 | 2.0 | 6.0 | 0.00 | 0.00 | 0.00 | 46 | 1024.7 |
| 20260906054742 | 72 | 288 | 3.0 | 6.0 | 0.00 | 0.00 | 0.00 | 46 | 1024.6 |
| 20260906054735 | 72 | 289 | 2.0 | 6.0 | 0.00 | 0.00 | 0.00 | 46 | 1024.6 |
| 20260906054007 | 72 | 283 | 3.0 | 6.0 | 0.00 | 0.00 | 0.00 | 46 | 1024.6 |
| 20260906053732 | 72 | 277 | 3.0 | 6.0 | 0.00 | 0.00 | 0.00 | 46 | 1024.5 |
| 20260906053504 | 71 | 275 | 2.0 | 5.0 | 0.00 | 0.00 | 0.00 | 47 | 1024.4 |
| 20260906053458 | 72 | 277 | 2.0 | 5.0 | 0.00 | 0.00 | 0.00 | 46 | 1024.5 |
| 20260906052732 | 72 | 282 | 2.0 | 5.0 | 0.00 | 0.00 | 0.00 | 46 | 1024.4 |
| 20260906052501 | 72 | 283 | 2.0 | 5.0 | 0.00 | 0.00 | 0.00 | 46 | 1024.4 |
| 20260906052000 | 72 | 282 | 3.0 | 6.0 | 0.00 | 0.00 | 0.00 | 46 | 1024.2 |
| 20260906051732 | 72 | 279 | 2.0 | 6.0 | 0.00 | 0.00 | 0.00 | 46 | 1024.2 |
| 20260906051503 | 72 | 279 | 3.0 | 6.0 | 0.00 | 0.00 | 0.00 | 46 | 1024.3 |
| 20260906051002 | 72 | 272 | 3.0 | 6.0 | 0.00 | 0.00 | 0.00 | 46 | 1024.2 |
| 20260906050732 | 72 | 274 | 2.0 | 7.0 | 0.00 | 0.00 | 0.00 | 46 | 1024.3 |
| 20260906050501 | 72 | 279 | 2.0 | 7.0 | 0.00 | 0.00 | 0.00 | 46 | 1024.1 |
| 20260906045959 | 72 | 287 | 2.0 | 7.0 | 0.00 | 0.00 | 0.00 | 45 | 1024.1 |
| 20260906045730 | 72 | 283 | 3.0 | 7.0 | 0.00 | 0.00 | 0.00 | 45 | 1024.1 |
| 20260906045458 | 72 | 274 | 4.0 | 7.0 | 0.00 | 0.00 | 0.00 | 45 | 1024.1 |
| 20260906044958 | 72 | 272 | 4.0 | 9.0 | 0.00 | 0.00 | 0.00 | 45 | 1024.1 |
| 20260906044731 | 72 | 276 | 3.0 | 9.0 | 0.00 | 0.00 | 0.00 | 45 | 1023.9 |
| 20260906044457 | 73 | 282 | 2.0 | 9.0 | 0.00 | 0.00 | 0.00 | 44 | 1023.9 |
| 20260906043957 | 73 | 279 | 3.0 | 9.0 | 0.00 | 0.00 | 0.00 | 44 | 1024.2 |
| 20260906043731 | 73 | 278 | 4.0 | 9.0 | 0.00 | 0.00 | 0.00 | 44 | 1024.1 |
| 20260906043458 | 73 | 276 | 4.0 | 9.0 | 0.00 | 0.00 | 0.00 | 44 | 1023.9 |
| 20260906042958 | 73 | 276 | 3.0 | 9.0 | 0.00 | 0.00 | 0.00 | 44 | 1023.9 |
| 20260906042729 | 73 | 274 | 3.0 | 9.0 | 0.00 | 0.00 | 0.00 | 44 | 1023.8 |
| 20260906042458 | 73 | 270 | 3.0 | 9.0 | 0.00 | 0.00 | 0.00 | 44 | 1023.9 |
| 20260906041957 | 73 | 268 | 3.0 | 9.0 | 0.00 | 0.00 | 0.00 | 44 | 1023.8 |
| 20260906041728 | 73 | 268 | 4.0 | 8.0 | 0.00 | 0.00 | 0.00 | 44 | 1023.8 |
| 20260906041457 | 73 | 274 | 4.0 | 7.0 | 0.00 | 0.00 | 0.00 | 44 | 1023.7 |
| 20260906040958 | 73 | 283 | 2.0 | 6.0 | 0.00 | 0.00 | 0.00 | 44 | 1023.8 |
| 20260906040727 | 72 | 290 | 2.0 | 6.0 | 0.00 | 0.00 | 0.00 | 44 | 1023.8 |
| 20260906040458 | 73 | 288 | 1.0 | 5.0 | 0.00 | 0.00 | 0.00 | 44 | 1023.8 |
| 20260906035958 | 73 | 291 | 1.0 | 5.0 | 0.00 | 0.00 | 0.00 | 44 | 1023.8 |
| 20260906035728 | 73 | 291 | 1.0 | 5.0 | 0.00 | 0.00 | 0.00 | 44 | 1023.7 |
| 20260906035458 | 73 | 297 | 1.0 | 5.0 | 0.00 | 0.00 | 0.00 | 44 | 1023.7 |
| 20260906034957 | 73 | 293 | 1.0 | 5.0 | 0.00 | 0.00 | 0.00 | 44 | 1023.7 |
| 20260906034726 | 72 | 292 | 1.0 | 5.0 | 0.00 | 0.00 | 0.00 | 45 | 1023.7 |
| 20260906034458 | 72 | 293 | 0.0 | 3.0 | 0.00 | 0.00 | 0.00 | 45 | 1023.7 |
| 20260906033958 | 72 | 280 | 0.0 | 2.0 | 0.00 | 0.00 | 0.00 | 47 | 1023.8 |
| 20260906033727 | 71 | 311 | 0.0 | 2.0 | 0.00 | 0.00 | 0.00 | 46 | 1023.8 |
| 20260906033458 | 71 | 282 | 0.0 | 2.0 | 0.00 | 0.00 | 0.00 | 47 | 1023.8 |
| 20260906032959 | 72 | 317 | 0.0 | 2.0 | 0.00 | 0.00 | 0.00 | 47 | 1023.8 |
| 20260906032727 | 72 | 294 | 0.0 | 2.0 | 0.00 | 0.00 | 0.00 | 46 | 1023.7 |
| 20260906032456 | 72 | 299 | 0.0 | 2.0 | 0.00 | 0.00 | 0.00 | 46 | 1023.8 |
| 20260906031955 | 71 | 256 | 0.0 | 2.0 | 0.00 | 0.00 | 0.00 | 47 | 1023.6 |
| 20260906031727 | 71 | 235 | 0.0 | 2.0 | 0.00 | 0.00 | 0.00 | 47 | 1023.6 |
| 20260906031456 | 70 | 222 | 0.0 | 4.0 | 0.00 | 0.00 | 0.00 | 49 | 1023.5 |
| 20260906031000 | 71 | 216 | 0.0 | 4.0 | 0.00 | 0.00 | 0.00 | 49 | 1023.6 |
| 20260906030727 | 71 | 213 | 0.0 | 4.0 | 0.00 | 0.00 | 0.00 | 49 | 1023.6 |
| 20260906030456 | 71 | 217 | 0.0 | 4.0 | 0.00 | 0.00 | 0.00 | 49 | 1023.7 |
| 20260906030225 | 72 | 256 | 0.0 | 4.0 | 0.00 | 0.00 | 0.00 | 48 | 1023.6 |
| 20260906025727 | 72 | 281 | 1.0 | 4.0 | 0.00 | 0.00 | 0.00 | 47 | 1023.6 |
| 20260906025505 | 73 | 311 | 0.0 | 7.0 | 0.00 | 0.00 | 0.00 | 44 | 1023.6 |
| 20260906025457 | 73 | 300 | 0.0 | 4.0 | 0.00 | 0.00 | 0.00 | 44 | 1023.7 |
| 20260906024726 | 73 | 296 | 0.0 | 7.0 | 0.00 | 0.00 | 0.00 | 45 | 1023.5 |
| 20260906024453 | 73 | 282 | 1.0 | 7.0 | 0.00 | 0.00 | 0.00 | 45 | 1023.6 |
| 20260906023955 | 73 | 263 | 2.0 | 7.0 | 0.00 | 0.00 | 0.00 | 44 | 1023.8 |
| 20260906023733 | 74 | 272 | 2.0 | 8.0 | 0.00 | 0.00 | 0.00 | 43 | 1023.9 |
| 20260906023729 | 74 | 271 | 2.0 | 7.0 | 0.00 | 0.00 | 0.00 | 44 | 1023.9 |
| 20260906023223 | 74 | 267 | 1.0 | 8.0 | 0.00 | 0.00 | 0.00 | 43 | 1023.8 |
| 20260906022727 | 74 | 274 | 1.0 | 8.0 | 0.00 | 0.00 | 0.00 | 43 | 1023.7 |
| 20260906022451 | 74 | 280 | 1.0 | 8.0 | 0.00 | 0.00 | 0.00 | 43 | 1023.8 |
| 20260906021951 | 74 | 293 | 1.0 | 8.0 | 0.00 | 0.00 | 0.00 | 42 | 1023.8 |
| 20260906021728 | 74 | 287 | 1.0 | 8.0 | 0.00 | 0.00 | 0.00 | 42 | 1023.8 |
| 20260906021451 | 74 | 286 | 1.0 | 4.0 | 0.00 | 0.00 | 0.00 | 42 | 1023.8 |
| 20260906020951 | 74 | 287 | 0.0 | 3.0 | 0.00 | 0.00 | 0.00 | 42 | 1023.7 |
| 20260906020726 | 74 | 287 | 0.0 | 3.0 | 0.00 | 0.00 | 0.00 | 42 | 1023.8 |
| 20260906020451 | 74 | 296 | 1.0 | 3.0 | 0.00 | 0.00 | 0.00 | 42 | 1023.7 |
| 20260906015951 | 74 | 310 | 0.0 | 3.0 | 0.00 | 0.00 | 0.00 | 42 | 1023.6 |
| 20260906015726 | 74 | 317 | 0.0 | 2.0 | 0.00 | 0.00 | 0.00 | 42 | 1023.7 |
| 20260906015454 | 74 | 321 | 0.0 | 4.0 | 0.00 | 0.00 | 0.00 | 42 | 1023.6 |
| 20260906014951 | 74 | 327 | 0.0 | 7.0 | 0.00 | 0.00 | 0.00 | 43 | 1023.7 |
| 20260906014726 | 74 | 316 | 0.0 | 7.0 | 0.00 | 0.00 | 0.00 | 43 | 1023.7 |
| 20260906014451 | 74 | 294 | 0.0 | 7.0 | 0.00 | 0.00 | 0.00 | 42 | 1023.7 |
| 20260906014222 | 74 | 259 | 2.0 | 7.0 | 0.00 | 0.00 | 0.00 | 42 | 1024.2 |
| 20260906013726 | 74 | 260 | 2.0 | 7.0 | 0.00 | 0.00 | 0.00 | 42 | 1024.2 |
| 20260906013448 | 74 | 260 | 2.0 | 7.0 | 0.00 | 0.00 | 0.00 | 42 | 1024.2 |
| 20260906012947 | 75 | 264 | 2.0 | 6.0 | 0.00 | 0.00 | 0.00 | 41 | 1024.2 |
| 20260906012728 | 75 | 268 | 2.0 | 6.0 | 0.00 | 0.00 | 0.00 | 41 | 1024.2 |
| 20260906012448 | 76 | 268 | 3.0 | 7.0 | 0.00 | 0.00 | 0.00 | 40 | 1024.3 |
| 20260906011947 | 76 | 282 | 2.0 | 7.0 | 0.00 | 0.00 | 0.00 | 39 | 1024.2 |
| 20260906011728 | 76 | 279 | 2.0 | 7.0 | 0.00 | 0.00 | 0.00 | 39 | 1024.2 |
| 20260906011446 | 76 | 277 | 2.0 | 7.0 | 0.00 | 0.00 | 0.00 | 39 | 1024.2 |
| 20260906010946 | 76 | 262 | 3.0 | 7.0 | 0.00 | 0.00 | 0.00 | 38 | 1024.3 |
| 20260906010727 | 76 | 268 | 2.0 | 7.0 | 0.00 | 0.00 | 0.00 | 39 | 1024.3 |
| 20260906010446 | 76 | 273 | 2.0 | 7.0 | 0.00 | 0.00 | 0.00 | 39 | 1024.2 |
| 20260906005946 | 76 | 336 | 1.0 | 3.0 | 0.00 | 0.00 | 0.00 | 39 | 1024.1 |
| 20260906005728 | 76 | 20 | 0.0 | 3.0 | 0.00 | 0.00 | 0.00 | 39 | 1024.1 |
| 20260906005714 | 76 | 66 | 0.0 | 3.0 | 0.00 | 0.00 | 0.00 | 39 | 1024.1 |
| 20260906004946 | 76 | 245 | 0.0 | 3.0 | 0.00 | 0.00 | 0.00 | 39 | 1024.1 |
| 20260906004727 | 76 | 257 | 0.0 | 3.0 | 0.00 | 0.00 | 0.00 | 39 | 1024.1 |
| 20260906004448 | 76 | 288 | 1.0 | 3.0 | 0.00 | 0.00 | 0.00 | 39 | 1024.1 |
| 20260906003951 | 76 | 317 | 1.0 | 3.0 | 0.00 | 0.00 | 0.00 | 39 | 1024.6 |
| 20260906003727 | 76 | 325 | 1.0 | 3.0 | 0.00 | 0.00 | 0.00 | 40 | 1024.6 |
| 20260906003446 | 76 | 323 | 1.0 | 3.0 | 0.00 | 0.00 | 0.00 | 40 | 1024.6 |
| 20260906002946 | 76 | 331 | 0.0 | 4.0 | 0.00 | 0.00 | 0.00 | 40 | 1024.6 |
| 20260906002727 | 76 | 329 | 0.0 | 4.0 | 0.00 | 0.00 | 0.00 | 40 | 1024.5 |
| 20260906002446 | 76 | 328 | 0.0 | 4.0 | 0.00 | 0.00 | 0.00 | 40 | 1024.5 |
| 20260906001946 | 76 | 4 | 1.0 | 4.0 | 0.00 | 0.00 | 0.00 | 40 | 1024.4 |
| 20260906001729 | 76 | 32 | 2.0 | 4.0 | 0.00 | 0.00 | 0.00 | 41 | 1024.5 |
| 20260906001446 | 76 | 53 | 2.0 | 4.0 | 0.00 | 0.00 | 0.00 | 40 | 1024.4 |
| 20260906000946 | 76 | 96 | 1.0 | 4.0 | 0.00 | 0.00 | 0.00 | 41 | 1024.4 |
| 20260906000727 | 76 | 95 | 1.0 | 3.0 | 0.00 | 0.00 | 0.00 | 41 | 1024.4 |
| 20260906000447 | 76 | 91 | 1.0 | 3.0 | 0.00 | 0.00 | 0.00 | 41 | 1024.4 |
| 20260905235946 | 76 | 37 | 0.0 | 4.0 | 0.00 | 0.00 | 0.00 | 40 | 1024.3 |
| 20260905235727 | 77 | 25 | 0.0 | 4.0 | 0.00 | 0.00 | 0.00 | 40 | 1024.3 |
| 20260905235446 | 77 | 353 | 0.0 | 4.0 | 0.00 | 0.00 | 0.00 | 39 | 1024.4 |
| 20260905234946 | 78 | 276 | 1.0 | 4.0 | 0.00 | 0.00 | 0.00 | 38 | 1024.4 |
| 20260905234727 | 78 | 266 | 1.0 | 4.0 | 0.00 | 0.00 | 0.00 | 37 | 1024.3 |
| 20260905234448 | 78 | 261 | 1.0 | 4.0 | 0.00 | 0.00 | 0.00 | 37 | 1024.3 |
| 20260905233945 | 78 | 278 | 1.0 | 4.0 | 0.00 | 0.00 | 0.00 | 37 | 1024.4 |
| 20260905233727 | 78 | 292 | 1.0 | 4.0 | 0.00 | 0.00 | 0.00 | 37 | 1024.3 |
| 20260905233445 | 79 | 301 | 1.0 | 4.0 | 0.00 | 0.00 | 0.00 | 36 | 1024.3 |
| 20260905232945 | 79 | 303 | 1.0 | 4.0 | 0.00 | 0.00 | 0.00 | 36 | 1024.3 |
| 20260905232727 | 79 | 301 | 1.0 | 4.0 | 0.00 | 0.00 | 0.00 | 36 | 1024.3 |
| 20260905232446 | 79 | 302 | 1.0 | 4.0 | 0.00 | 0.00 | 0.00 | 36 | 1024.2 |
| 20260905231946 | 79 | 311 | 1.0 | 3.0 | 0.00 | 0.00 | 0.00 | 36 | 1024.3 |
| 20260905231726 | 79 | 321 | 1.0 | 3.0 | 0.00 | 0.00 | 0.00 | 36 | 1024.3 |
| 20260905231446 | 79 | 333 | 1.0 | 3.0 | 0.00 | 0.00 | 0.00 | 37 | 1024.2 |
| 20260905230946 | 78 | 309 | 1.0 | 3.0 | 0.00 | 0.00 | 0.00 | 37 | 1024.4 |
| 20260905230926 | 78 | 306 | 0.0 | 3.0 | 0.00 | 0.00 | 0.00 | 37 | 1024.4 |
| 20260905225947 | 79 | 341 | 0.0 | 2.0 | 0.00 | 0.00 | 0.00 | 36 | 1024.4 |
| 20260905225726 | 79 | 331 | 0.0 | 2.0 | 0.00 | 0.00 | 0.00 | 37 | 1024.5 |
| 20260905225717 | 79 | 330 | 0.0 | 4.0 | 0.00 | 0.00 | 0.00 | 36 | 1024.5 |
| 20260905224946 | 80 | 316 | 0.0 | 8.0 | 0.00 | 0.00 | 0.00 | 35 | 1024.5 |
| 20260905224726 | 80 | 303 | 0.0 | 8.0 | 0.00 | 0.00 | 0.00 | 35 | 1024.5 |
| 20260905224445 | 80 | 277 | 1.0 | 8.0 | 0.00 | 0.00 | 0.00 | 35 | 1024.5 |
| 20260905223945 | 80 | 257 | 2.0 | 8.0 | 0.00 | 0.00 | 0.00 | 34 | 1024.5 |
| 20260905223727 | 81 | 257 | 2.0 | 8.0 | 0.00 | 0.00 | 0.00 | 34 | 1024.5 |
| 20260905223443 | 81 | 270 | 2.0 | 8.0 | 0.00 | 0.00 | 0.00 | 34 | 1024.5 |
| 20260905222944 | 80 | 292 | 1.0 | 6.0 | 0.00 | 0.00 | 0.00 | 34 | 1024.5 |
| 20260905222728 | 80 | 291 | 1.0 | 6.0 | 0.00 | 0.00 | 0.00 | 34 | 1024.5 |
| 20260905222714 | 81 | 299 | 1.0 | 6.0 | 0.00 | 0.00 | 0.00 | 34 | 1024.6 |
| 20260905221944 | 81 | 308 | 1.0 | 6.0 | 0.00 | 0.00 | 0.00 | 34 | 1024.3 |
| 20260905221728 | 81 | 314 | 1.0 | 8.0 | 0.00 | 0.00 | 0.00 | 34 | 1024.4 |
| 20260905221441 | 81 | 300 | 1.0 | 11.0 | 0.00 | 0.00 | 0.00 | 34 | 1024.3 |
| 20260905221217 | 81 | 292 | 0.0 | 11.0 | 0.00 | 0.00 | 0.00 | 34 | 1024.3 |
| 20260905220728 | 82 | 279 | 1.0 | 11.0 | 0.00 | 0.00 | 0.00 | 33 | 1024.3 |
| 20260905220442 | 82 | 273 | 2.0 | 11.0 | 0.00 | 0.00 | 0.00 | 33 | 1024.3 |
| 20260905220218 | 82 | 275 | 2.0 | 11.0 | 0.00 | 0.00 | 0.00 | 32 | 1024.4 |
| 20260905215725 | 82 | 273 | 2.0 | 11.0 | 0.00 | 0.00 | 0.00 | 33 | 1024.3 |
| 20260905215711 | 82 | 266 | 2.0 | 8.0 | 0.00 | 0.00 | 0.00 | 33 | 1024.4 |
| 20260905214942 | 82 | 257 | 2.0 | 8.0 | 0.00 | 0.00 | 0.00 | 32 | 1024.3 |
| 20260905214727 | 82 | 263 | 2.0 | 8.0 | 0.00 | 0.00 | 0.00 | 33 | 1024.4 |
| 20260905214443 | 81 | 283 | 2.0 | 8.0 | 0.00 | 0.00 | 0.00 | 33 | 1024.3 |
| 20260905214209 | 81 | 299 | 2.0 | 8.0 | 0.00 | 0.00 | 0.00 | 33 | 1024.3 |
| 20260905213724 | 82 | 306 | 2.0 | 8.0 | 0.00 | 0.00 | 0.00 | 33 | 1024.4 |
| 20260905213442 | 82 | 301 | 2.0 | 8.0 | 0.00 | 0.00 | 0.00 | 33 | 1024.4 |
| 20260905212942 | 82 | 288 | 2.0 | 8.0 | 0.00 | 0.00 | 0.00 | 33 | 1024.3 |
| 20260905212725 | 82 | 268 | 2.0 | 8.0 | 0.00 | 0.00 | 0.00 | 33 | 1024.2 |
| 20260905212441 | 82 | 251 | 1.0 | 8.0 | 0.00 | 0.00 | 0.00 | 33 | 1024.3 |
| 20260905211941 | 82 | 259 | 0.0 | 5.0 | 0.00 | 0.00 | 0.00 | 33 | 1024.2 |
| 20260905211725 | 82 | 273 | 1.0 | 5.0 | 0.00 | 0.00 | 0.00 | 33 | 1024.2 |
| 20260905211442 | 83 | 273 | 2.0 | 6.0 | 0.00 | 0.00 | 0.00 | 32 | 1024.1 |
| 20260905210941 | 83 | 276 | 2.0 | 10.0 | 0.00 | 0.00 | 0.00 | 32 | 1024.3 |
| 20260905210723 | 83 | 276 | 2.0 | 10.0 | 0.00 | 0.00 | 0.00 | 31 | 1024.2 |
| 20260905210441 | 83 | 284 | 2.0 | 10.0 | 0.00 | 0.00 | 0.00 | 31 | 1024.2 |
| 20260905205940 | 84 | 267 | 3.0 | 10.0 | 0.00 | 0.00 | 0.00 | 31 | 1024.2 |
| 20260905205722 | 85 | 253 | 4.0 | 10.0 | 0.00 | 0.00 | 0.00 | 30 | 1024.3 |
| 20260905205440 | 85 | 244 | 4.0 | 15.0 | 0.00 | 0.00 | 0.00 | 30 | 1024.3 |
| 20260905204939 | 85 | 242 | 4.0 | 15.0 | 0.00 | 0.00 | 0.00 | 30 | 1024.5 |
| 20260905204722 | 85 | 252 | 4.0 | 15.0 | 0.00 | 0.00 | 0.00 | 30 | 1024.3 |
| 20260905204440 | 85 | 253 | 5.0 | 15.0 | 0.00 | 0.00 | 0.00 | 29 | 1024.3 |
| 20260905203937 | 85 | 249 | 7.0 | 15.0 | 0.00 | 0.00 | 0.00 | 29 | 1024.4 |
| 20260905203721 | 85 | 238 | 8.0 | 15.0 | 0.00 | 0.00 | 0.00 | 29 | 1024.3 |
| 20260905203438 | 85 | 239 | 6.0 | 14.0 | 0.00 | 0.00 | 0.00 | 30 | 1024.2 |